Bellingham, WA

12:45 PM PST on January 21, 2018 (GMT -0800)
Bellingham International

Weather History for KBLI - March, 2013

Change the Weather History Date:

Sunday, March 17, 2013

  Actual Average Record
Temperature  
Mean Temperature 44 °F 44 °F  
Max Temperature 48 °F 52 °F 62 °F (1961)
Min Temperature 40 °F 37 °F 24 °F (1971)
Degree Days  
Heating Degree Days 21 21  
Month to date heating degree days 323 371  
Cooling Degree Days 0 0  
Month to date cooling degree days 0 0  
Year to date cooling degree days 0 0  
Moisture  
Dew Point 32 °F    
Average Humidity 66    
Maximum Humidity 79    
Minimum Humidity 53    
Precipitation  
Precipitation T in 0.10 in 0.99 in (1950)
Month to date precipitation 2.84 1.72  
Year to date precipitation 6.16 9.41  
Sea Level Pressure  
Sea Level Pressure 30.11 in    
Wind  
Wind Speed 6 mph (South)    
Max Wind Speed 14 mph    
Max Gust Speed 18 mph    
Visibility 10 miles    
Events Rain    
T = Trace of Precipitation, MM = Missing Value Source: NWS Daily Summary

Daily Weather History Graph

Daily Weather History Graph

Search for Another Location

Airport or City:

Trip Planner

Search our weather history database for the weather conditions in past years. The results will help you decide how hot, cold, wet, or windy it might be!

Date:

Astronomy

Mar. 17, 2013 Rise Set
Actual Time 7:18 AM PDT 7:19 PM PDT
Civil Twilight 6:47 AM PDT 7:50 PM PDT
Nautical Twilight 6:10 AM PDT 8:27 PM PDT
Astronomical Twilight 5:32 AM PDT 9:05 PM PDT
Moon 10:07 AM PDT (3/17) 12:58 AM PDT (3/17)
Length of Visible Light 13h 03m
Length of Day
12h 00m
Waxing Crescent, 32% of the Moon is Illuminated
Mar 17
Waxing Crescent
Mar 19
First Quarter
Mar 27
Full
Apr 2
Last Quarter
Apr 10
New

Hourly Weather History & Observations

Time (PDT) Temp. Windchill Dew Point Humidity Pressure Visibility Wind Dir Wind Speed Gust Speed Precip Events Conditions
12:53 AM 41.0 °F 38.0 °F 35.1 °F 79% 29.96 in 10.0 mi South 4.6 mph - N/A   Overcast
1:53 AM 41.0 °F - 33.1 °F 73% 29.99 in 10.0 mi Calm Calm - N/A   Mostly Cloudy
2:53 AM 41.0 °F 36.4 °F 33.1 °F 73% 30.01 in 10.0 mi Variable 6.9 mph - N/A   Overcast
3:53 AM 41.0 °F 37.1 °F 32.0 °F 70% 30.02 in 10.0 mi South 5.8 mph - N/A   Mostly Cloudy
4:53 AM 41.0 °F 38.0 °F 32.0 °F 70% 30.04 in 10.0 mi South 4.6 mph - N/A   Overcast
5:53 AM 41.0 °F 36.4 °F 32.0 °F 70% 30.06 in 10.0 mi South 6.9 mph - N/A   Overcast
6:53 AM 41.0 °F 38.0 °F 32.0 °F 70% 30.08 in 10.0 mi SSE 4.6 mph - N/A   Overcast
7:53 AM 41.0 °F 37.1 °F 32.0 °F 70% 30.10 in 10.0 mi SSW 5.8 mph - N/A   Overcast
8:53 AM 41.0 °F 39.0 °F 33.1 °F 73% 30.14 in 10.0 mi South 3.5 mph - N/A   Overcast
9:53 AM 42.1 °F 39.2 °F 32.0 °F 67% 30.15 in 10.0 mi Variable 4.6 mph - N/A   Scattered Clouds
10:53 AM 45.0 °F 41.8 °F 30.9 °F 58% 30.16 in 10.0 mi WNW 5.8 mph - N/A   Mostly Cloudy
11:53 AM 46.0 °F 42.5 °F 30.9 °F 56% 30.16 in 10.0 mi SSW 6.9 mph - N/A   Scattered Clouds
12:53 PM 45.0 °F 41.8 °F 30.0 °F 56% 30.16 in 10.0 mi Variable 5.8 mph - N/A   Clear
1:53 PM 46.0 °F 41.4 °F 30.9 °F 56% 30.16 in 10.0 mi SSE 9.2 mph - N/A   Scattered Clouds
2:53 PM 46.9 °F - 30.9 °F 54% 30.15 in 10.0 mi South 8.1 mph - N/A   Scattered Clouds
3:53 PM 48.0 °F - 33.1 °F 56% 30.15 in 10.0 mi South 10.4 mph 16.1 mph N/A   Clear
4:53 PM 46.0 °F 41.9 °F 32.0 °F 58% 30.16 in 10.0 mi West 8.1 mph - 0.00 in Rain Light Rain
5:53 PM 46.0 °F 41.9 °F 33.1 °F 61% 30.15 in 10.0 mi South 8.1 mph - 0.00 in   Mostly Cloudy
6:53 PM 44.1 °F 39.0 °F 33.1 °F 65% 30.14 in 10.0 mi South 9.2 mph - 0.00 in   Partly Cloudy
7:53 PM 43.0 °F 39.5 °F 33.1 °F 68% 30.14 in 10.0 mi South 5.8 mph - N/A   Mostly Cloudy
8:53 PM 42.1 °F 38.4 °F 33.1 °F 70% 30.14 in 10.0 mi SSW 5.8 mph - N/A   Mostly Cloudy
9:53 PM 42.1 °F 37.7 °F 33.1 °F 70% 30.15 in 10.0 mi Variable 6.9 mph - N/A   Clear
10:53 PM 41.0 °F 38.0 °F 33.1 °F 73% 30.15 in 10.0 mi South 4.6 mph - N/A   Mostly Cloudy
11:53 PM 41.0 °F 36.4 °F 34.0 °F 76% 30.14 in 10.0 mi South 6.9 mph - N/A   Mostly Cloudy